Other Surface Observations
Issued by NWS

Current Version | Previous Version | Text Only | Print | Product List | Glossary On
Versions: 1 2 3 4 5 6 7 8 9 10 11 12 13 14 15 16 17 18 19 20 21 22 23 24 25 26 27 28 29 30 31 32 33 34 35 36 37 38 39 40 41 42 43 44 45 46 47 48 49 50
000
SXUS52 KTAE 291418
OSOTAE
OSOTAE
North Florida/South Alabama/Southwest Georgia Weather Roundup
National Weather Service Tallahassee Florida
1000 AM EDT FRI AUG 29 2014

Note: "fair" indicates few or no clouds below 12,000 feet with no
significant weather and/or obstructions to visibility.

!FLZ017-115-028-034-025-291500
...North Florida...

CITY           SKY/WX    TMP DP  RH WIND       PRES   REMARKS
TALLAHASSEE    MOSUNNY   85  74  69 NE5       30.03S HX  92
APALACHICOLA   SUNNY     84  77  79 NE8       30.00R HX  94
PERRY          SUNNY     82  73  74 SE6       30.04R
CROSS CITY       N/A     85  76  74 VRB5      30.04S HX  94
HOMERVILLE     FAIR      84  75  74 S5        30.08R HX  92
JACKSONVILLE   PTSUNNY   83  76  79 CALM      30.05S HX  91
$$

!FLZ112-006-005-002-011-291500
...Florida Panhandle...

CITY           SKY/WX    TMP DP  RH WIND       PRES   REMARKS
MARIANNA       SUNNY     82  71  69 E7        30.03S
BONIFAY        LGT RAIN  81  72  74 VRB3      30.04S
PANAMA CITY NW FAIR      84  70  62 NE9       30.01R
TYNDALL AFB    DRIZZLE   82  74  78 E6        30.02R
TYND DRONE APT FAIR      82  76  82 E9        30.00R
DE FUNIAK SPR  FAIR      81  72  73 E9        30.04R
EGLIN AFB      PTSUNNY   82  70  66 E7        30.02R
DESTIN         PTSUNNY   82  73  74 E9        30.02R
HURLBURT       MOSUNNY   83  66  54 E12       30.00R
CRESTVIEW      SUNNY     82  72  71 E5        30.04R
PENSACOLA      PTSUNNY   80  72  76 E7        30.00S
$$

!ALZ063-066-291500
...South Alabama...

CITY           SKY/WX    TMP DP  RH WIND       PRES   REMARKS
DOTHAN         SUNNY     80  70  71 E6        30.08S
OZARK CAIRNS   SUNNY     82  69  65 NE5       30.04S
FT RUCKER HELI SUNNY     83  69  62 E3        30.03S
RUCKER HELI 3  FAIR      82  69  64 NE6       30.06S
RUCKER HELI 2  FAIR      82  69  64 E6        30.04S
FLORALA APT    SUNNY     82  71  69 E5        30.05S
ANDALUSIA      SUNNY     87  70  56 E6        30.03S HX  92
TROY           PTSUNNY   78  69  73 SE5       30.06R
EUFALA         FAIR      83  66  56 CALM      30.05R
MOBILE         PTSUNNY   78  74  87 E8        30.01R
$$

!GAZ120>161-291500
...Southwest and South Central Georgia...

CITY           SKY/WX    TMP DP  RH WIND       PRES   REMARKS
THOMASVILLE    FAIR      81  72  74 SE3       30.06S
BAINBRIDGE     SUNNY     84  73  70 SE5       30.05S HX  91
MOODY AFB      SUNNY     81  72  74 VRB2      30.07R
VALDOSTA       SUNNY     82  72  71 CALM      30.06S
MOULTRIE       SUNNY     81  72  74 SE5       30.07S
BLAKELY        SUNNY     84  72  65 E6          N/A
ALBANY         SUNNY     82  67  60 SE3       30.08S
TIFTON         FAIR      80  70  70 SE5       30.07S
FITZGERALD     FAIR      84  70  62 S5        30.10S
CORDELE        FAIR      84  65  53 CALM      30.08R
AMERICUS       FAIR      81  64  57 CALM      30.08S
$$

!GMZ750-755-770-775-291500
...Coastal and Buoy Obs...

STATION/POSITION TIME  TEMP    WIND        PRES    VSBY  WAVE
                       AIR SEA DIR/SP/G                  HT/PER
                 (UTC) (F)     (DEG/KT/KT) (MB)    (MI)  (FT/S)
KEATON BEACH     1400   83     130/  7/ 10 1017.2R
CEDAR KEY        1400   81     120/  9/ 10 1017.6R
C TOWER          1400   85     150/ 10/ 11 1015.8R
APALACHICOLA BUO 1400   85 86  180/ 12/ 14 1016.1R         2/ 4
PANAMA CITY BUOY 1348   83 86  210/ 17/ 25 1015.3R         3/ 6
MOBILE BUOY      1400   84 85  100/ 16/ 17 1014.5R
ORANGE BCH AL BU 1400   85 85  100/ 14/ 16 1015.2R         3/ 6
$$



USA.gov is the U.S. government's official web portal to all federal, state and local government web resources and services.